Location: Mercogliano
(40.9167°N, 14.7333°E)
Time: 13:29:54
(UTC+00:00)

CENTAUR R/B - Pass Details

Date: 18 September 2020
Orbit: 753 x 1435 km, 63.5° (Epoch: 26 October)

Event Time Altitude Azimuth Distance (km) Brightness Sun altitude
Rises 19:26:07 0° 326° (NW) 4,158 6.7 -26.5°
Reaches altitude 10° 19:28:49 10° 330° (NNW) 3,272 6.0 -27.0°
Maximum altitude 19:36:55 65° 52° (NE) 1,507 3.2 -28.3°
Enters shadow 19:38:32 56° 97° (E) 1,633 3.2 -28.6°
